Stations météo

Publicité
Montpellier, France (7643): Température de l'air & dewpoint: 14.08.2018 22:00:00 - 20.08.2018 22:00:00 (CEST)Montpellier, France (7643): Température de l'air 5cm: 14.08.2018 22:00:00 - 20.08.2018 22:00:00 (CEST)Montpellier, France (7643): Température de l'air -20cm & Température de l'air -100cm: 14.08.2018 22:00:00 - 20.08.2018 22:00:00 (CEST)Montpellier, France (7643): Vitesse du vent & gusts: 14.08.2018 22:00:00 - 20.08.2018 22:00:00 (CEST)Montpellier, France (7643): Direction du vent: 14.08.2018 22:00:00 - 20.08.2018 22:00:00 (CEST)Montpellier, France (7643): reduced air pressure: 14.08.2018 22:00:00 - 20.08.2018 22:00:00 (CEST)Montpellier, France (7643): visibility: 14.08.2018 22:00:00 - 20.08.2018 22:00:00 (CEST)Montpellier, France (7643): Ensoleillement: 14.08.2018 22:00:00 - 20.08.2018 22:00:00 (CEST)Montpellier, France (7643): Quantités de précipitations: 14.08.2018 22:00:00 - 20.08.2018 22:00:00 (CEST)
Date & Time tt [°C] td [°C] tt 5cm [°C] tt -20cm [°C] tt -100cm [°C] ff [km/h] ff [knt] fx [km/h] fx [knt] dd ppp [hPa] vv [km] sd [min] rr [mm]
20.08.2018 22:00:00 25,7 17,9 21,2 28,6 24,2 9 5 12 7 N 1016,0 41 0 0,0
20.08.2018 21:00:00 26,2 18,8 23,4 28,8 24,2 3 1 11 6 ENE 1015,8 56 4 0,0
20.08.2018 20:00:00 26,9 19,0 27,1 28,9 24,2 10 5 21 11 SSE 1015,5 58 11 0,0
20.08.2018 19:00:00 31,6 14,7 32,1 28,8 24,2 9 5 18 10 SW 1015,0 58 60 0,0
20.08.2018 18:00:00 32,9 15,0 36,6 28,5 24,2 14 8 21 11 SSW 1014,8 31 60 0,0
20.08.2018 17:00:00 33,5 14,5 37,8 28,0 24,2 14 7 29 16 S 1014,8 17 60 0,0
20.08.2018 16:00:00 34,4 13,8 38,6 27,5 24,2 14 7 33 18 N 1015,4 20 60 0,0
20.08.2018 15:00:00 33,7 13,7 39,2 27,0 24,2 17 9 36 19 NNE 1016,1 34 60 0,0
20.08.2018 14:00:00 33,1 13,7 38,0 26,4 24,1 19 10 36 19 NNE 1016,6 35 60 0,0
20.08.2018 13:00:00 32,8 13,9 36,0 25,9 24,2 25 13 41 22 NNE 1016,9 36 60 0,0
20.08.2018 12:00:00 31,5 12,3 34,6 25,5 24,2 29 16 46 25 NNE 1017,2 20 60 0,0
20.08.2018 11:00:00 30,3 11,3 34,7 25,3 24,2 27 15 43 23 N 1017,3 20 60 0,0
20.08.2018 10:00:00 28,5 11,1 30,7 25,2 24,2 11 6 20 11 WNW 1017,5 60 60 0,0
20.08.2018 09:00:00 25,3 11,5 22,6 25,3 24,2 12 7 17 9 WNW 1017,3 60 60 0,0
20.08.2018 08:00:00 23,3 12,6 17,9 25,5 24,2 6 3 14 8 N 1017,3 48 37 0,0
20.08.2018 07:00:00 21,8 11,5 17,8 25,7 24,2 12 6 14 8 WNW 1016,9 60 0 0,0
20.08.2018 06:00:00 22,5 12,4 17,0 26,0 24,2 9 5 17 9 WNW 1017,0 60 0 0,0
20.08.2018 05:00:00 21,2 13,1 16,3 26,2 24,2 13 7 16 9 NW 1017,1 60 0 0,0
20.08.2018 04:00:00 20,1 13,8 16,4 26,5 24,2 11 6 16 8 N 1017,7 60 0 0,0
20.08.2018 03:00:00 22,9 14,2 17,3 26,8 24,2 4 2 14 7 NW 1017,5 60 0 0,0
20.08.2018 02:00:00 24,7 15,6 18,4 27,0 24,2 11 6 14 7 WNW 1017,8 52 0 0,0
20.08.2018 01:00:00 25,3 14,4 19,6 27,3 24,2 9 5 15 8 NNW 1018,2 60 0 0,0
20.08.2018 00:00:00 25,2 16,3 19,7 27,6 24,2 8 5 11 6 NNW 1018,3 40 0 0,0
19.08.2018 23:00:00 23,8 17,5 20,0 27,9 24,2 8 4 15 8 NE 1018,1 46 0 0,0
19.08.2018 22:00:00 24,2 18,2 21,5 28,1 24,2 9 5 16 9 ENE 1017,7 56 0 0,0
19.08.2018 21:00:00 26,9 15,0 22,9 28,3 24,2 9 5 18 10 SSW 1017,0 59 18 0,0
19.08.2018 20:00:00 29,6 16,4 28,0 28,4 24,2 13 7 21 11 SW 1016,9 59 60 0,0
19.08.2018 19:00:00 30,5 16,1 31,5 28,3 24,2 18 10 22 12 SW 1017,0 54 60 0,0
19.08.2018 18:00:00 31,4 15,8 35,0 28,1 24,2 16 8 21 11 SW 1017,2 60 60 0,0
19.08.2018 17:00:00 31,4 15,8 37,2 27,6 24,2 16 9 25 13 SSW 1017,6 60 60 0,0
19.08.2018 16:00:00 32,7 13,8 37,9 27,1 24,2 15 8 34 18 N 1017,7 49 60 0,0
19.08.2018 15:00:00 32,5 15,1 38,2 26,5 24,2 20 11 31 17 N 1018,3 30 60 0,0
19.08.2018 14:00:00 31,9 15,4 36,6 25,9 24,2 21 12 38 21 N 1018,7 49 60 0,0
19.08.2018 13:00:00 31,1 15,1 35,2 25,4 24,2 22 12 40 22 N 1018,8 49 60 0,0
19.08.2018 12:00:00 30,2 14,7 32,8 25,1 24,3 23 12 37 20 N 1019,1 52 60 0,0
19.08.2018 11:00:00 29,1 14,1 32,8 24,8 24,2 23 13 39 21 NNE 1019,5 59 60 0,0
19.08.2018 10:00:00 27,9 14,2 32,9 24,7 24,2 13 7 23 13 N 1019,6 60 60 0,0
19.08.2018 09:00:00 25,3 14,7 21,8 24,8 24,2 7 4 13 7 WNW 1019,5 54 60 0,0
19.08.2018 08:00:00 22,2 15,1 14,9 25,0 24,3 6 4 14 8 NNW 1019,2 40 45 0,0
19.08.2018 07:00:00 18,7 14,4 14,8 25,2 24,3 4 2 9 5 NNW 1019,0 54 0 0,0
19.08.2018 06:00:00 20,0 13,9 16,0 25,4 24,3 6 3 12 6 NNW 1018,8 58 0 0,0
19.08.2018 05:00:00 20,4 14,5 16,2 25,6 24,3 10 5 12 6 NW 1018,8 60 0 0,0
19.08.2018 04:00:00 22,2 14,8 17,3 25,8 24,3 9 5 12 7 WNW 1018,9 55 0 0,0
19.08.2018 03:00:00 22,9 15,0 18,3 26,0 24,3 9 5 11 6 WNW 1019,0 48 0 0,0
19.08.2018 02:00:00 23,8 14,5 18,6 26,3 24,3 10 5 17 9 NW 1019,3 53 0 0,0
19.08.2018 01:00:00 23,5 13,4 19,5 26,6 24,3 16 9 25 14 NNE 1019,3 60 0 0,0
19.08.2018 00:00:00 23,3 14,3 18,8 26,8 24,3 9 5 16 8 N 1019,3 60 0 0,0
18.08.2018 23:00:00 23,9 15,9 18,9 27,1 24,3 7 4 9 5 NW 1019,0 45 0 0,0
18.08.2018 22:00:00 25,9 15,3 19,6 27,3 24,3 4 2 12 6 NNW 1018,6 57 0 0,0
18.08.2018 21:00:00 25,4 16,3 22,3 27,5 24,3 10 5 19 10 NNE 1018,0 41 0 0,0
18.08.2018 20:00:00 27,7 15,4 26,1 27,7 24,3 11 6 22 12 ENE 1017,6 58 6 0,0
18.08.2018 19:00:00 29,6 14,6 29,0 27,6 24,3 16 8 26 14 NE 1017,2 59 43 0,0
18.08.2018 18:00:00 30,9 14,1 32,2 27,4 24,3 16 8 26 14 NNE 1016,7 56 58 0,0
18.08.2018 17:00:00 31,4 14,5 34,6 27,1 24,3 14 8 31 17 N 1016,9 48 60 0,0
18.08.2018 16:00:00 31,7 15,6 37,7 26,5 24,3 17 9 42 23 NNE 1017,1 43 60 0,0
18.08.2018 15:00:00 30,9 15,7 37,3 25,9 24,3 18 10 34 19 NNE 1017,5 20 60 0,0
18.08.2018 14:00:00 30,6 16,2 35,3 25,2 24,3 22 12 35 19 N 1017,9 45 60 0,0
18.08.2018 13:00:00 29,3 15,4 32,8 24,8 24,3 20 11 37 20 N 1018,3 44 60 0,0
18.08.2018 12:00:00 28,5 15,8 29,8 24,5 24,3 26 14 37 20 N 1018,6 36 48 0,0
18.08.2018 11:00:00 26,5 14,9 26,7 24,3 24,3 20 11 33 18 NNE 1018,7 32 37 0,0
18.08.2018 10:00:00 24,1 15,6 25,3 24,2 24,3 15 8 27 15 WNW 1018,5 53 13 0,0
18.08.2018 09:00:00 23,1 15,4 21,0 24,3 24,3 16 9 24 13 WNW 1018,3 59 37 0,0
18.08.2018 08:00:00 21,4 15,0 19,3 24,5 24,4 15 8 20 11 W 1018,0 55 35 0,0
18.08.2018 07:00:00 21,6 14,5 19,0 24,6 24,3 13 7 24 13 WNW 1017,6 60 0 0,0
18.08.2018 06:00:00 21,7 14,6 19,3 24,8 24,4 16 9 25 14 WNW 1017,3 60 0 0,0
18.08.2018 05:00:00 21,9 14,3 19,5 25,0 24,3 14 7 22 12 WNW 1017,3 60 0 0,0
18.08.2018 04:00:00 22,1 14,2 19,6 25,1 24,4 13 7 24 13 NW 1017,3 60 0 0,0
18.08.2018 03:00:00 22,6 14,2 20,4 25,3 24,3 16 9 26 14 WNW 1017,5 60 0 0,0
18.08.2018 02:00:00 22,9 14,5 20,7 25,6 24,4 17 9 28 15 WNW 1017,6 60 0 0,0
18.08.2018 01:00:00 23,3 15,1 20,8 25,7 24,4 15 8 21 11 NW 1017,6 60 0 0,0
18.08.2018 00:00:00 23,4 15,7 19,7 25,9 24,4 12 7 16 9 NW 1017,4 53 0 0,0
17.08.2018 23:00:00 23,6 15,6 20,5 26,1 24,4 11 6 16 9 NW 1017,1 52 0 0,0
17.08.2018 22:00:00 24,2 15,7 21,2 26,3 24,4 11 6 20 11 NW 1016,8 57 0 0,0
17.08.2018 21:00:00 24,6 15,5 22,0 26,5 24,4 13 7 24 13 NW 1015,9 55 10 0,0
17.08.2018 20:00:00 26,0 16,5 24,6 26,5 24,3 10 6 24 13 NW 1015,7 56 8 0,0
17.08.2018 19:00:00 27,0 16,3 27,7 26,5 24,4 15 8 23 13 NW 1015,4 60 48 0,0
17.08.2018 18:00:00 26,9 16,5 27,3 26,4 24,4 16 9 31 17 NNW 1015,6 60 16 0,0
17.08.2018 17:00:00 26,0 16,5 27,4 26,4 24,4 24 13 36 19 NNW 1015,9 60 0 0,0
17.08.2018 16:00:00 26,8 14,2 27,5 26,3 24,4 24 13 35 19 NW 1016,2 49 0 0,0
17.08.2018 15:00:00 26,8 15,8 23,1 26,2 24,4 22 12 43 23 NW 1015,8 60 14 0,0
17.08.2018 14:00:00 24,8 18,0 22,5 26,1 24,4 25 14 41 22 WNW 1015,7 19 0 0,4
17.08.2018 13:00:00 27,4 17,0 28,8 25,8 24,4 23 12 30 16 WNW 1016,0 47 10 0,0
17.08.2018 12:00:00 26,0 21,2 23,0 25,6 24,4 6 3 28 15 NW 1016,1 43 0 0,6
17.08.2018 11:00:00 26,7 17,7 30,5 25,5 24,4 19 11 28 15 WNW 1016,2 49 34 0,0
17.08.2018 10:00:00 25,0 19,8 24,3 25,3 24,3 2 1 7 4 W 1015,8 25 50 0,0
17.08.2018 09:00:00 20,4 19,7 21,1 25,3 24,4 3 1 9 5 W 1015,9 0,6 5 0,0
17.08.2018 08:00:00 19,7 19,0 19,1 25,5 24,4 5 3 11 6 N 1015,6 0,1 4 0,0
17.08.2018 07:00:00 18,8 18,0 16,5 25,6 24,4 9 5 13 7 NNW 1015,1 0,2 0 0,0
17.08.2018 06:00:00 18,2 17,0 15,3 25,9 24,4 7 4 14 7 NE 1014,7 0,9 0 0,0
17.08.2018 05:00:00 17,9 15,9 15,8 26,1 24,4 8 5 10 5 N 1014,6 13 0 0,0
17.08.2018 04:00:00 18,1 16,3 15,6 26,4 24,4 7 4 8 4 N 1014,6 18 0 0,0
17.08.2018 03:00:00 19,1 16,7 15,4 26,7 24,4 3 2 5 3 N 1014,5 19 0 0,0
17.08.2018 02:00:00 19,8 17,2 15,7 27,1 24,4 4 2 7 4 NNW 1014,6 24 0 0,0
17.08.2018 01:00:00 20,3 16,9 16,1 27,4 24,4 6 3 8 4 NW 1015,0 31 0 0,0
17.08.2018 00:00:00 21,6 18,2 16,5 27,8 24,4 2 1 8 5 S 1015,1 41 0 0,0
16.08.2018 23:00:00 23,1 18,8 19,5 28,1 24,4 8 4 16 8 W 1015,0 43 0 0,0
16.08.2018 22:00:00 23,5 19,4 21,0 28,4 24,4 12 6 15 8 WSW 1014,7 37 0 0,0
16.08.2018 21:00:00 23,9 19,8 21,5 28,8 24,4 10 5 17 9 SW 1014,4 54 8 0,0
16.08.2018 20:00:00 24,7 20,2 24,2 28,9 24,4 11 6 19 10 SSW 1014,1 42 42 0,0
16.08.2018 19:00:00 26,4 19,5 28,9 28,9 24,4 14 7 19 11 SSW 1014,3 58 60 0,0
16.08.2018 18:00:00 26,8 18,9 32,9 28,7 24,4 12 7 20 11 S 1014,4 45 60 0,0
16.08.2018 17:00:00 26,6 18,7 35,0 28,2 24,4 15 8 22 12 S 1014,7 20 60 0,0
16.08.2018 16:00:00 27,0 18,8 37,8 27,7 24,5 16 9 22 12 SSE 1015,1 19 60 0,0
16.08.2018 15:00:00 27,2 19,8 38,2 26,9 24,5 19 11 24 13 SSE 1015,4 56 60 0,0
16.08.2018 14:00:00 27,3 18,6 41,8 26,2 24,4 15 8 19 11 SSE 1015,6 19 60 0,0
16.08.2018 13:00:00 28,0 16,9 36,4 25,6 24,5 9 5 15 8 SSE 1015,7 6 60 0,0
16.08.2018 12:00:00 28,0 16,0 33,8 25,1 24,4 11 6 18 10 E 1016,0 60 60 0,0
16.08.2018 11:00:00 26,9 16,2 31,6 24,9 24,5 11 6 21 11 E 1016,1 19 60 0,0
16.08.2018 10:00:00 25,6 15,3 28,4 24,7 24,4 13 7 23 12 NNE 1015,9 60 60 0,0
16.08.2018 09:00:00 24,0 15,0 20,7 24,9 24,5 16 9 22 12 NNE 1015,8 60 60 0,0
16.08.2018 08:00:00 21,2 15,5 14,6 25,1 24,5 13 7 18 10 NNE 1015,9 48 48 0,0
16.08.2018 07:00:00 18,1 13,8 14,4 25,3 24,5 8 4 14 7 N 1015,8 60 0 0,0
16.08.2018 06:00:00 17,7 13,6 14,2 25,6 24,5 7 4 9 5 N 1015,6 56 0 0,0
16.08.2018 05:00:00 18,4 14,7 14,9 25,8 24,5 3 2 9 5 NNE 1015,8 58 0 0,0
16.08.2018 04:00:00 21,1 14,3 15,9 26,1 24,5 5 3 9 5 NNW 1015,8 60 0 0,0
16.08.2018 03:00:00 21,8 14,4 16,1 26,4 24,5 9 5 10 5 NW 1016,0 59 0 0,0
16.08.2018 02:00:00 23,2 13,7 16,5 26,7 24,5 5 3 10 6 WNW 1016,3 60 0 0,0
16.08.2018 01:00:00 22,9 14,5 17,5 27,0 24,5 10 5 12 7 N 1016,3 60 0 0,0
16.08.2018 00:00:00 21,9 16,0 18,2 27,3 24,5 6 4 9 5 NNW 1016,4 52 0 0,0
15.08.2018 23:00:00 23,5 15,5 18,5 27,6 24,5 5 3 6 3 NW 1016,4 59 0 0,0
15.08.2018 22:00:00 24,0 15,2 19,0 27,9 24,5 0 0 4 2 N 1016,4 60 0 0,0
15.08.2018 21:00:00 26,9 16,8 21,1 28,1 24,5 4 2 14 7 WSW 1015,8 60 25 0,0
15.08.2018 20:00:00 28,7 15,2 26,7 28,2 24,5 9 5 21 11 SW 1015,5 57 60 0,0
15.08.2018 19:00:00 29,0 14,0 30,1 28,1 24,5 15 8 21 12 SSW 1015,4 60 60 0,0
15.08.2018 18:00:00 29,4 15,1 34,9 27,9 24,6 14 8 23 12 SSW 1015,6 19 60 0,0
15.08.2018 17:00:00 30,2 15,1 35,2 27,4 24,6 10 5 26 14 S 1015,8 8 60 0,0
15.08.2018 16:00:00 31,2 13,0 36,2 26,9 24,6 16 8 29 16 NE 1016,1 53 60 0,0
15.08.2018 15:00:00 31,5 14,6 36,9 26,2 24,6 10 6 35 19 NNE 1016,6 18 60 0,0
15.08.2018 14:00:00 29,7 13,5 36,6 25,6 24,6 17 9 34 19 NNE 1016,9 50 60 0,0
15.08.2018 13:00:00 29,2 13,8 33,7 25,0 24,6 21 12 37 20 N 1017,1 48 60 0,0
15.08.2018 12:00:00 28,3 13,8 30,9 24,7 24,6 23 13 41 22 N 1017,4 48 60 0,0
15.08.2018 11:00:00 27,0 12,6 30,2 24,5 24,6 27 15 41 22 N 1017,5 56 60 0,0
15.08.2018 10:00:00 26,4 12,5 30,3 24,4 24,6 25 13 39 21 N 1017,4 59 60 0,0
15.08.2018 09:00:00 24,7 12,0 20,7 24,5 24,6 9 5 14 8 W 1017,4 60 60 0,0
15.08.2018 08:00:00 21,9 12,2 15,9 24,7 24,6 7 4 12 7 WSW 1017,2 60 49 0,0
15.08.2018 07:00:00 19,9 11,4 16,3 24,9 24,6 13 7 19 10 NW 1017,0 58 0 0,0
15.08.2018 06:00:00 20,3 11,0 15,2 25,2 24,6 13 7 17 9 W 1017,1 60 0 0,0
15.08.2018 05:00:00 20,1 11,3 15,4 25,5 24,6 13 7 24 13 WSW 1017,1 60 0 0,0
15.08.2018 04:00:00 22,2 10,7 18,1 25,7 24,6 18 10 29 16 NNW 1016,7 60 0 0,0
15.08.2018 03:00:00 22,7 11,4 16,9 26,0 24,6 15 8 21 11 NW 1016,9 60 0 0,0
15.08.2018 02:00:00 22,7 11,7 18,3 26,2 24,6 8 5 15 8 WNW 1017,1 60 0 0,0
15.08.2018 01:00:00 23,1 13,0 19,8 26,5 24,6 11 6 22 12 NW 1017,0 60 0 0,0
15.08.2018 00:00:00 24,0 13,5 20,6 26,8 24,6 14 7 21 11 WNW 1016,9 60 0 0,0
14.08.2018 23:00:00 24,5 13,7 21,8 27,1 24,6 13 7 31 17 NW 1016,7 60 0 0,0
14.08.2018 22:00:00 25,6 13,8 23,2 27,4 24,6 22 12 37 20 NW 1016,5 60 0 0,0

tt = Température de l'air
td = dewpoint
tt 5cm = Température de l'air 5cm
tt -20cm = Température de l'air -20cm
tt -100cm = Température de l'air -100cm
ff = Vitesse du vent
fx = gusts
dd = Direction du vent
ppp = reduced air pressure
vv = visibility
sd = Ensoleillement
rr = Quantités de précipitations

stations d'obs. à proximité